| time (UTC) | temp F | wind direction | speed MPH | gust MPH | rain 1hr in | rain 24hr in | rain mn in | humidity % | barometer mb |
| 20260502202017 | 45 | 0.0 | 2.0 | 0.00 | 0.24 | 0.24 | 84 | 1010.6 | |
| 20260502201517 | 44 | 293 | 1.0 | 2.0 | 0.00 | 0.24 | 0.24 | 84 | 1010.7 |
| 20260502201037 | 44 | 293 | 1.0 | 4.0 | 0.00 | 0.24 | 0.24 | 83 | 1010.7 |
| 20260502200517 | 44 | 315 | 3.0 | 5.0 | 0.00 | 0.24 | 0.24 | 83 | 1010.7 |
| 20260502200017 | 45 | 315 | 2.0 | 6.0 | 0.00 | 0.24 | 0.24 | 83 | 1010.8 |
| 20260502195517 | 45 | 315 | 1.0 | 3.0 | 0.00 | 0.24 | 0.24 | 84 | 1010.8 |
| 20260502195017 | 44 | 293 | 1.0 | 3.0 | 0.00 | 0.24 | 0.24 | 85 | 1010.8 |
| 20260502194517 | 44 | 315 | 1.0 | 2.0 | 0.00 | 0.24 | 0.24 | 86 | 1010.9 |
| 20260502194017 | 44 | 248 | 1.0 | 2.0 | 0.00 | 0.24 | 0.24 | 84 | 1011.0 |
| 20260502193517 | 44 | 248 | 1.0 | 4.0 | 0.00 | 0.24 | 0.24 | 82 | 1011.1 |
| 20260502193017 | 45 | 315 | 2.0 | 5.0 | 0.00 | 0.24 | 0.24 | 83 | 1011.1 |
| 20260502192517 | 45 | 293 | 1.0 | 5.0 | 0.00 | 0.24 | 0.24 | 81 | 1011.2 |
| 20260502192017 | 45 | 248 | 2.0 | 6.0 | 0.01 | 0.24 | 0.24 | 83 | 1011.1 |
| 20260502191517 | 45 | 135 | 3.0 | 7.0 | 0.01 | 0.24 | 0.24 | 87 | 1011.1 |
| 20260502191017 | 44 | 315 | 1.0 | 3.0 | 0.01 | 0.24 | 0.24 | 91 | 1011.2 |
| 20260502190517 | 43 | 315 | 2.0 | 5.0 | 0.01 | 0.24 | 0.24 | 91 | 1011.2 |
| 20260502190017 | 43 | 315 | 2.0 | 7.0 | 0.01 | 0.24 | 0.24 | 90 | 1011.2 |
| 20260502185537 | 43 | 293 | 1.0 | 5.0 | 0.01 | 0.24 | 0.24 | 88 | 1011.2 |
| 20260502185017 | 42 | 338 | 2.0 | 5.0 | 0.01 | 0.24 | 0.24 | 95 | 1011.2 |
| 20260502184517 | 42 | 315 | 2.0 | 6.0 | 0.01 | 0.24 | 0.24 | 93 | 1011.3 |
| 20260502184017 | 41 | 293 | 1.0 | 4.0 | 0.01 | 0.24 | 0.24 | 94 | 1011.4 |
| 20260502183517 | 41 | 315 | 4.0 | 13.0 | 0.01 | 0.24 | 0.24 | 93 | 1011.7 |
| 20260502183017 | 41 | 315 | 6.0 | 12.0 | 0.01 | 0.24 | 0.24 | 92 | 1011.7 |
| 20260502182557 | 42 | 315 | 4.0 | 12.0 | 0.01 | 0.24 | 0.24 | 92 | 1011.6 |
| 20260502182017 | 42 | 293 | 1.0 | 4.0 | 0.00 | 0.23 | 0.23 | 93 | 1011.6 |
| 20260502181517 | 42 | 270 | 2.0 | 7.0 | 0.00 | 0.23 | 0.23 | 91 | 1011.6 |
| 20260502181017 | 43 | 315 | 2.0 | 5.0 | 0.00 | 0.23 | 0.23 | 90 | 1011.5 |
| 20260502180517 | 44 | 315 | 2.0 | 7.0 | 0.00 | 0.23 | 0.23 | 92 | 1011.5 |
| 20260502164017 | 41 | 315 | 3.0 | 8.0 | 0.00 | 0.20 | 0.20 | 93 | 1011.4 |
| 20260502163517 | 42 | 293 | 2.0 | 6.0 | 0.00 | 0.20 | 0.20 | 93 | 1011.4 |
| 20260502163017 | 42 | 315 | 2.0 | 5.0 | 0.00 | 0.20 | 0.20 | 93 | 1011.3 |
| 20260502162517 | 42 | 315 | 3.0 | 6.0 | 0.00 | 0.20 | 0.20 | 93 | 1011.3 |
| 20260502162017 | 42 | 315 | 4.0 | 11.0 | 0.00 | 0.20 | 0.20 | 92 | 1011.2 |
| 20260502161537 | 43 | 315 | 5.0 | 11.0 | 0.00 | 0.20 | 0.20 | 91 | 1011.2 |
| 20260502161017 | 43 | 315 | 4.0 | 11.0 | 0.00 | 0.20 | 0.20 | 92 | 1011.2 |
| 20260502160537 | 43 | 315 | 4.0 | 9.0 | 0.00 | 0.20 | 0.20 | 93 | 1011.2 |
| 20260502152017 | 41 | 315 | 1.0 | 4.0 | 0.00 | 0.20 | 0.20 | 95 | 1011.6 |
| 20260502151517 | 41 | 315 | 3.0 | 5.0 | 0.00 | 0.20 | 0.20 | 95 | 1011.6 |
| 20260502151037 | 41 | 315 | 3.0 | 5.0 | 0.00 | 0.20 | 0.20 | 95 | 1011.6 |
| 20260502150517 | 41 | 315 | 1.0 | 5.0 | 0.00 | 0.20 | 0.20 | 95 | 1011.6 |
| 20260502130517 | 43 | 270 | 1.0 | 3.0 | 0.01 | 0.17 | 0.17 | 94 | 1011.6 |
| 20260502123517 | 41 | 0.0 | 1.0 | 0.00 | 0.16 | 0.16 | 96 | 1011.5 | |
| 20260502123017 | 41 | 0.0 | 0.0 | 0.00 | 0.16 | 0.16 | 96 | 1011.6 | |
| 20260502122517 | 41 | 0.0 | 1.0 | 0.00 | 0.16 | 0.16 | 96 | 1011.6 | |
| 20260502122017 | 41 | 0.0 | 1.0 | 0.00 | 0.16 | 0.16 | 96 | 1011.6 | |
| 20260502121517 | 41 | 0.0 | 0.0 | 0.00 | 0.16 | 0.16 | 97 | 1011.5 | |
| 20260502121017 | 41 | 0.0 | 1.0 | 0.00 | 0.16 | 0.16 | 96 | 1011.5 | |
| 20260502120517 | 40 | 0.0 | 0.0 | 0.00 | 0.16 | 0.16 | 97 | 1011.5 | |
| 20260502115517 | 40 | 0.0 | 1.0 | 0.00 | 0.16 | 0.16 | 97 | 1011.5 | |
| 20260502115017 | 40 | 0.0 | 1.0 | 0.00 | 0.16 | 0.16 | 97 | 1011.5 | |
| 20260502114517 | 40 | 0.0 | 0.0 | 0.00 | 0.16 | 0.16 | 97 | 1011.5 | |
| 20260502114017 | 40 | 0.0 | 1.0 | 0.00 | 0.16 | 0.16 | 97 | 1011.6 | |
| 20260502113517 | 40 | 0.0 | 0.0 | 0.00 | 0.16 | 0.16 | 97 | 1011.7 | |
| 20260502113017 | 39 | 0.0 | 0.0 | 0.00 | 0.16 | 0.16 | 97 | 1011.6 | |
| 20260502112517 | 39 | 0.0 | 1.0 | 0.01 | 0.16 | 0.16 | 97 | 1011.6 | |
| 20260502112017 | 39 | 0.0 | 2.0 | 0.01 | 0.16 | 0.16 | 97 | 1011.6 | |
| 20260502111517 | 39 | 90 | 1.0 | 3.0 | 0.01 | 0.16 | 0.16 | 97 | 1011.6 |
| 20260502111017 | 39 | 113 | 1.0 | 3.0 | 0.01 | 0.16 | 0.16 | 97 | 1011.7 |
| 20260502110517 | 39 | 0.0 | 1.0 | 0.01 | 0.16 | 0.16 | 97 | 1011.6 | |
| 20260502110017 | 39 | 90 | 1.0 | 2.0 | 0.01 | 0.16 | 0.16 | 97 | 1011.6 |
| 20260502105517 | 39 | 90 | 1.0 | 2.0 | 0.01 | 0.16 | 0.16 | 97 | 1011.5 |
| 20260502105037 | 39 | 90 | 1.0 | 2.0 | 0.01 | 0.16 | 0.16 | 97 | 1011.5 |
| 20260502104517 | 39 | 0.0 | 1.0 | 0.01 | 0.16 | 0.16 | 97 | 1011.5 | |
| 20260502104017 | 39 | 0.0 | 1.0 | 0.02 | 0.16 | 0.16 | 97 | 1011.5 | |
| 20260502103517 | 39 | 0.0 | 1.0 | 0.02 | 0.16 | 0.16 | 97 | 1011.4 | |
| 20260502103018 | 39 | 0.0 | 0.0 | 0.02 | 0.16 | 0.16 | 97 | 1011.4 | |
| 20260502102517 | 39 | 0.0 | 1.0 | 0.01 | 0.15 | 0.15 | 97 | 1011.3 | |
| 20260502102017 | 39 | 0.0 | 0.0 | 0.02 | 0.15 | 0.15 | 97 | 1011.3 | |
| 20260502101517 | 39 | 0.0 | 1.0 | 0.02 | 0.15 | 0.15 | 97 | 1011.2 | |
| 20260502101017 | 39 | 0.0 | 1.0 | 0.02 | 0.15 | 0.15 | 97 | 1011.2 | |
| 20260502100517 | 38 | 0.0 | 0.0 | 0.02 | 0.15 | 0.15 | 97 | 1011.1 | |
| 20260502091517 | 38 | 0.0 | 1.0 | 0.03 | 0.13 | 0.13 | 97 | 1011.5 | |
| 20260502091017 | 38 | 0.0 | 1.0 | 0.03 | 0.13 | 0.13 | 97 | 1011.5 | |
| 20260502090517 | 38 | 0.0 | 1.0 | 0.04 | 0.13 | 0.13 | 97 | 1011.3 | |
| 20260502090138 | 38 | 0.0 | 2.0 | 0.04 | 0.13 | 0.13 | 97 | 1011.3 | |
| 20260502071517 | 38 | 0.0 | 0.0 | 0.04 | 0.08 | 0.08 | 97 | 1011.5 | |
| 20260502071017 | 38 | 0.0 | 0.0 | 0.03 | 0.07 | 0.07 | 97 | 1011.6 | |
| 20260502070517 | 38 | 0.0 | 0.0 | 0.04 | 0.07 | 0.07 | 97 | 1011.7 | |
| 20260502070017 | 39 | 0.0 | 0.0 | 0.04 | 0.07 | 0.07 | 97 | 1011.8 | |
| 20260502065537 | 39 | 0.0 | 0.0 | 0.03 | 0.06 | 0.06 | 97 | 1011.9 | |
| 20260502065057 | 39 | 0.0 | 0.0 | 0.03 | 0.06 | 0.06 | 97 | 1011.8 | |
| 20260502064517 | 39 | 0.0 | 0.0 | 0.04 | 0.06 | 0.06 | 97 | 1011.8 | |
| 20260502064017 | 39 | 0.0 | 1.0 | 0.03 | 0.05 | 0.05 | 97 | 1011.7 | |
| 20260502063517 | 39 | 0.0 | 0.0 | 0.03 | 0.05 | 0.05 | 97 | 1011.8 | |
| 20260502063017 | 39 | 0.0 | 0.0 | 0.03 | 0.05 | 0.05 | 97 | 1011.8 | |
| 20260502062537 | 39 | 0.0 | 1.0 | 0.03 | 0.05 | 0.05 | 97 | 1011.9 | |
| 20260502062017 | 39 | 0.0 | 0.0 | 0.03 | 0.04 | 0.04 | 97 | 1011.9 | |
| 20260502061519 | 39 | 0.0 | 0.0 | 0.04 | 0.04 | 0.04 | 96 | 1012.0 | |
| 20260502061039 | 39 | 0.0 | 0.0 | 0.04 | 0.04 | 0.04 | 96 | 1012.0 | |
| 20260502060519 | 39 | 0.0 | 0.0 | 0.03 | 0.03 | 0.03 | 96 | 1011.9 | |
| 20260502060020 | 39 | 0.0 | 1.0 | 0.03 | 0.03 | 0.03 | 96 | 1011.9 | |
| 20260502055517 | 39 | 0.0 | 0.0 | 0.03 | 0.03 | 0.03 | 96 | 1011.9 | |
| 20260502055017 | 39 | 0.0 | 0.0 | 0.03 | 0.03 | 0.03 | 96 | 1012.1 | |
| 20260502054517 | 39 | 0.0 | 0.0 | 0.02 | 0.02 | 0.02 | 95 | 1012.1 | |
| 20260502054017 | 39 | 0.0 | 1.0 | 0.02 | 0.02 | 0.02 | 95 | 1012.1 | |
| 20260502053537 | 39 | 0.0 | 1.0 | 0.02 | 0.02 | 0.02 | 95 | 1012.1 | |
| 20260502053057 | 39 | 0.0 | 0.0 | 0.02 | 0.02 | 0.02 | 95 | 1012.1 | |
| 20260502052517 | 39 | 0.0 | 1.0 | 0.02 | 0.02 | 0.02 | 95 | 1012.2 | |
| 20260502052018 | 39 | 0.0 | 0.0 | 0.01 | 0.01 | 0.01 | 94 | 1012.1 | |
| 20260502051517 | 39 | 0.0 | 0.0 | 0.00 | 0.00 | 0.00 | 94 | 1012.2 | |
| 20260502051017 | 39 | 0.0 | 1.0 | 0.00 | 0.00 | 0.00 | 93 | 1012.2 | |
| 20260502050517 | 39 | 0.0 | 0.0 | 0.00 | 0.00 | 0.00 | 92 | 1012.2 | |
| 20260502050017 | 39 | 0.0 | 0.0 | 0.00 | 0.00 | 0.00 | 91 | 1012.2 | |
| 20260502045517 | 39 | 0.0 | 0.0 | 0.00 | 0.00 | 0.00 | 91 | 1012.2 | |
| 20260502045017 | 39 | 0.0 | 1.0 | 0.00 | 0.00 | 0.00 | 90 | 1012.1 | |
| 20260502044517 | 39 | 0.0 | 0.0 | 0.00 | 0.00 | 0.00 | 90 | 1012.2 | |
| 20260502044017 | 39 | 0.0 | 1.0 | 0.00 | 0.00 | 0.00 | 90 | 1012.2 | |
| 20260502043517 | 39 | 0.0 | 0.0 | 0.00 | 0.00 | 0.00 | 90 | 1012.1 | |
| 20260502043017 | 38 | 0.0 | 1.0 | 0.00 | 0.00 | 0.00 | 89 | 1012.1 | |
| 20260502042517 | 38 | 0.0 | 0.0 | 0.00 | 0.00 | 0.00 | 89 | 1012.0 | |
| 20260502042017 | 38 | 0.0 | 0.0 | 0.00 | 0.00 | 0.00 | 89 | 1012.0 | |
| 20260502041517 | 38 | 0.0 | 0.0 | 0.00 | 0.00 | 0.00 | 89 | 1012.0 | |
| 20260502041037 | 38 | 0.0 | 0.0 | 0.00 | 0.00 | 0.00 | 89 | 1012.1 | |
| 20260502040517 | 38 | 0.0 | 0.0 | 0.00 | 0.00 | 0.00 | 89 | 1012.0 | |
| 20260502040017 | 38 | 0.0 | 1.0 | 0.00 | 0.00 | 0.00 | 88 | 1011.9 | |
| 20260502035517 | 38 | 0.0 | 1.0 | 0.00 | 0.00 | 0.00 | 89 | 1011.9 | |
| 20260502035017 | 38 | 0.0 | 0.0 | 0.00 | 0.00 | 0.00 | 89 | 1012.0 | |
| 20260502034517 | 38 | 0.0 | 0.0 | 0.00 | 0.00 | 0.00 | 88 | 1012.0 | |
| 20260502034017 | 38 | 0.0 | 1.0 | 0.00 | 0.00 | 0.00 | 88 | 1012.0 | |
| 20260502033517 | 38 | 0.0 | 2.0 | 0.00 | 0.00 | 0.00 | 88 | 1012.0 | |
| 20260502033017 | 37 | 0.0 | 1.0 | 0.00 | 0.00 | 0.00 | 89 | 1012.0 | |
| 20260502032517 | 37 | 0.0 | 0.0 | 0.00 | 0.00 | 0.00 | 89 | 1012.0 | |
| 20260502032037 | 37 | 0.0 | 1.0 | 0.00 | 0.00 | 0.00 | 89 | 1012.0 | |
| 20260502031517 | 37 | 0.0 | 0.0 | 0.00 | 0.00 | 0.00 | 89 | 1012.0 | |
| 20260502031017 | 37 | 0.0 | 1.0 | 0.00 | 0.00 | 0.00 | 89 | 1012.0 | |
| 20260502030517 | 37 | 0.0 | 1.0 | 0.00 | 0.00 | 0.00 | 89 | 1011.9 | |
| 20260502030037 | 37 | 0.0 | 1.0 | 0.00 | 0.00 | 0.00 | 88 | 1011.9 | |
| 20260502025517 | 37 | 0.0 | 0.0 | 0.00 | 0.00 | 0.00 | 89 | 1011.9 | |
| 20260502025017 | 37 | 0.0 | 1.0 | 0.00 | 0.00 | 0.00 | 89 | 1011.9 | |
| 20260502024517 | 36 | 0.0 | 1.0 | 0.00 | 0.00 | 0.00 | 88 | 1011.8 | |
| 20260502024017 | 37 | 0.0 | 1.0 | 0.00 | 0.00 | 0.00 | 88 | 1011.8 | |
| 20260502023557 | 37 | 0.0 | 0.0 | 0.00 | 0.00 | 0.00 | 89 | 1011.7 | |
| 20260502023017 | 37 | 0.0 | 1.0 | 0.00 | 0.00 | 0.00 | 88 | 1011.7 | |
| 20260502022517 | 37 | 0.0 | 1.0 | 0.00 | 0.00 | 0.00 | 88 | 1011.7 | |
| 20260502022018 | 37 | 0.0 | 1.0 | 0.00 | 0.00 | 0.00 | 87 | 1011.8 | |
| 20260502021517 | 38 | 0.0 | 2.0 | 0.00 | 0.00 | 0.00 | 86 | 1011.8 | |
| 20260502021017 | 38 | 0.0 | 1.0 | 0.00 | 0.00 | 0.00 | 87 | 1011.8 | |
| 20260502020517 | 38 | 0.0 | 1.0 | 0.00 | 0.00 | 0.00 | 85 | 1011.8 | |
| 20260502020017 | 38 | 0.0 | 1.0 | 0.00 | 0.00 | 0.00 | 85 | 1011.8 | |
| 20260502015517 | 39 | 0.0 | 0.0 | 0.00 | 0.00 | 0.00 | 85 | 1011.8 | |
| 20260502015017 | 39 | 45 | 1.0 | 2.0 | 0.00 | 0.00 | 0.00 | 84 | 1011.9 |
| 20260502014517 | 39 | 0.0 | 2.0 | 0.00 | 0.00 | 0.00 | 85 | 1011.9 | |
| 20260502014017 | 39 | 0.0 | 0.0 | 0.00 | 0.01 | 0.00 | 84 | 1011.9 | |
| 20260502013515 | 39 | 0.0 | 0.0 | 0.00 | 0.01 | 0.00 | 84 | 1011.8 | |
| 20260502013017 | 40 | 0.0 | 0.0 | 0.00 | 0.02 | 0.00 | 85 | 1011.8 | |
| 20260502012517 | 40 | 0.0 | 0.0 | 0.00 | 0.02 | 0.00 | 83 | 1011.8 | |
| 20260502012017 | 40 | 0.0 | 0.0 | 0.00 | 0.02 | 0.00 | 83 | 1011.8 | |
| 20260502011517 | 40 | 0.0 | 0.0 | 0.00 | 0.02 | 0.00 | 82 | 1011.8 | |
| 20260502011017 | 40 | 0.0 | 0.0 | 0.00 | 0.02 | 0.00 | 82 | 1011.8 | |
| 20260502010517 | 41 | 0.0 | 0.0 | 0.00 | 0.02 | 0.00 | 82 | 1011.8 | |
| 20260502010017 | 41 | 0.0 | 0.0 | 0.00 | 0.03 | 0.00 | 79 | 1011.7 | |
| 20260502005517 | 41 | 0.0 | 1.0 | 0.00 | 0.03 | 0.00 | 77 | 1011.7 | |
| 20260502005017 | 41 | 0.0 | 0.0 | 0.00 | 0.03 | 0.00 | 80 | 1011.7 | |
| 20260502004517 | 41 | 0.0 | 1.0 | 0.00 | 0.03 | 0.00 | 80 | 1011.6 | |
| 20260502004018 | 40 | 0.0 | 1.0 | 0.00 | 0.03 | 0.00 | 80 | 1011.6 | |
| 20260502003515 | 40 | 0.0 | 0.0 | 0.00 | 0.03 | 0.00 | 79 | 1011.5 | |
| 20260502003015 | 41 | 0.0 | 0.0 | 0.00 | 0.03 | 0.00 | 80 | 1011.4 | |
| 20260502002535 | 41 | 0.0 | 0.0 | 0.00 | 0.03 | 0.00 | 79 | 1011.3 | |
| 20260502002016 | 41 | 0.0 | 0.0 | 0.00 | 0.03 | 0.00 | 77 | 1011.2 | |
| 20260502001515 | 42 | 0.0 | 0.0 | 0.00 | 0.03 | 0.00 | 76 | 1011.2 | |
| 20260502001015 | 42 | 0.0 | 0.0 | 0.00 | 0.03 | 0.00 | 75 | 1011.1 | |
| 20260502000516 | 43 | 0.0 | 0.0 | 0.00 | 0.03 | 0.00 | 75 | 1011.1 | |
| 20260502000015 | 43 | 0.0 | 0.0 | 0.00 | 0.03 | 0.00 | 75 | 1011.1 | |
| 20260501235615 | 44 | 0.0 | 0.0 | 0.00 | 0.03 | 0.00 | 71 | 1011.1 | |
| 20260501235015 | 44 | 0.0 | 0.0 | 0.00 | 0.03 | 0.00 | 68 | 1011.0 | |
| 20260501234515 | 45 | 0.0 | 0.0 | 0.00 | 0.03 | 0.00 | 67 | 1011.0 | |
| 20260501234015 | 45 | 0.0 | 0.0 | 0.00 | 0.03 | 0.00 | 64 | 1010.8 | |
| 20260501233515 | 46 | 0.0 | 0.0 | 0.00 | 0.03 | 0.00 | 58 | 1010.7 | |
| 20260501233015 | 47 | 0.0 | 0.0 | 0.00 | 0.03 | 0.00 | 57 | 1010.7 | |
| 20260501232535 | 47 | 0.0 | 0.0 | 0.00 | 0.04 | 0.00 | 53 | 1010.7 | |
| 20260501232015 | 48 | 0.0 | 1.0 | 0.00 | 0.04 | 0.00 | 52 | 1010.6 | |
| 20260501231535 | 48 | 0.0 | 1.0 | 0.00 | 0.04 | 0.00 | 51 | 1010.5 | |
| 20260501231035 | 49 | 293 | 1.0 | 3.0 | 0.00 | 0.05 | 0.00 | 48 | 1010.4 |
| 20260501230515 | 49 | 293 | 1.0 | 3.0 | 0.00 | 0.05 | 0.00 | 48 | 1010.4 |
| 20260501230015 | 50 | 315 | 1.0 | 3.0 | 0.00 | 0.05 | 0.00 | 46 | 1010.3 |
| 20260501225515 | 50 | 315 | 1.0 | 2.0 | 0.00 | 0.05 | 0.00 | 45 | 1010.4 |
| 20260501225015 | 50 | 293 | 2.0 | 3.0 | 0.00 | 0.06 | 0.00 | 45 | 1010.4 |
| 20260501224536 | 50 | 293 | 1.0 | 4.0 | 0.00 | 0.06 | 0.00 | 44 | 1010.4 |
| 20260501224015 | 50 | 0.0 | 2.0 | 0.00 | 0.07 | 0.00 | 43 | 1010.4 | |
| 20260501223515 | 50 | 0.0 | 1.0 | 0.00 | 0.07 | 0.00 | 44 | 1010.4 | |
| 20260501223015 | 50 | 270 | 1.0 | 2.0 | 0.00 | 0.07 | 0.00 | 44 | 1010.3 |
| 20260501222515 | 51 | 338 | 1.0 | 3.0 | 0.00 | 0.07 | 0.00 | 45 | 1010.3 |
| 20260501222015 | 51 | 315 | 3.0 | 7.0 | 0.00 | 0.07 | 0.00 | 44 | 1010.3 |
| 20260501221515 | 51 | 315 | 2.0 | 4.0 | 0.00 | 0.08 | 0.00 | 44 | 1010.3 |
| 20260501221015 | 51 | 270 | 1.0 | 3.0 | 0.00 | 0.08 | 0.00 | 44 | 1010.2 |
| 20260501220515 | 51 | 293 | 2.0 | 5.0 | 0.00 | 0.08 | 0.00 | 44 | 1010.2 |
| 20260501215515 | 50 | 315 | 2.0 | 4.0 | 0.00 | 0.09 | 0.00 | 44 | 1010.3 |
| 20260501215015 | 51 | 315 | 3.0 | 5.0 | 0.00 | 0.09 | 0.00 | 44 | 1010.3 |
| 20260501214515 | 52 | 315 | 3.0 | 6.0 | 0.00 | 0.09 | 0.00 | 42 | 1010.3 |
| 20260501214015 | 53 | 315 | 4.0 | 9.0 | 0.00 | 0.09 | 0.00 | 42 | 1010.3 |
| 20260501213536 | 53 | 225 | 2.0 | 7.0 | 0.00 | 0.09 | 0.00 | 43 | 1010.2 |
| 20260501213015 | 53 | 315 | 5.0 | 10.0 | 0.00 | 0.09 | 0.00 | 41 | 1010.3 |
| 20260501212515 | 53 | 315 | 6.0 | 12.0 | 0.00 | 0.09 | 0.00 | 41 | 1010.2 |
| 20260501212035 | 53 | 315 | 1.0 | 8.0 | 0.00 | 0.09 | 0.00 | 41 | 1010.2 |
| 20260501211515 | 52 | 203 | 1.0 | 5.0 | 0.00 | 0.09 | 0.00 | 44 | 1010.2 |
| 20260501211015 | 52 | 293 | 2.0 | 6.0 | 0.00 | 0.10 | 0.00 | 45 | 1010.2 |
| 20260501210515 | 53 | 315 | 5.0 | 9.0 | 0.00 | 0.10 | 0.00 | 42 | 1010.2 |
| 20260501210015 | 54 | 315 | 4.0 | 11.0 | 0.00 | 0.10 | 0.00 | 40 | 1010.1 |
| 20260501205515 | 54 | 315 | 2.0 | 6.0 | 0.00 | 0.10 | 0.00 | 41 | 1010.1 |
| 20260501205015 | 54 | 203 | 2.0 | 7.0 | 0.00 | 0.11 | 0.00 | 43 | 1010.1 |
| 20260501204515 | 53 | 315 | 4.0 | 12.0 | 0.00 | 0.11 | 0.00 | 42 | 1010.1 |
| 20260501204015 | 53 | 248 | 2.0 | 8.0 | 0.00 | 0.11 | 0.00 | 43 | 1010.1 |
| 20260501203515 | 52 | 180 | 2.0 | 9.0 | 0.00 | 0.11 | 0.00 | 45 | 1010.0 |
| 20260501203015 | 51 | 0.0 | 3.0 | 0.00 | 0.11 | 0.00 | 44 | 1010.0 | |
| 20260501202515 | 51 | 315 | 1.0 | 4.0 | 0.00 | 0.11 | 0.00 | 46 | 1010.2 |